Weather History for KMIC - January, 2013

Change the Weather History Date:

Thursday, January 31, 2013

  Actual Average Record
Temperature  
Mean Temperature 0 °F -  
Max Temperature 6 °F 24 °F 45 °F (1993)
Min Temperature -8 °F 9 °F -16 °F (2004)
Degree Days  
Heating Degree Days 66    
Moisture  
Dew Point -8 °F    
Average Humidity 66    
Maximum Humidity 73    
Minimum Humidity 57    
Precipitation  
Precipitation 0.00 in - - ()
Sea Level Pressure  
Sea Level Pressure 30.04 in    
Wind  
Wind Speed 16 mph (WNW)    
Max Wind Speed 22 mph    
Max Gust Speed 30 mph    
Visibility 6 miles    
Events Snow    
Averages and records for this station are not official NWS values.
T = Trace of Precipitation, MM = Missing Value Source: NWS Daily Summary

Daily Weather History Graph

Daily Weather History Graph

Search for Another Location

Airport or City:

Trip Planner

Search our weather history database for the weather conditions in past years. The results will help you decide how hot, cold, wet, or windy it might be!

Date:

Astronomy

Jan. 31, 2013 Rise Set
Actual Time 7:34 AM CST 5:20 PM CST
Civil Twilight 7:02 AM CST 5:51 PM CST
Nautical Twilight 6:27 AM CST 6:26 PM CST
Astronomical Twilight 5:53 AM CST 7:01 PM CST
Moon 10:40 PM CST (1/31) 9:18 AM CST (1/31)
Length of Visible Light 10h 48m
Length of Day
9h 46m
Waning Gibbous, 79% of the Moon is Illuminated
Jan 31
Waning Gibbous
Feb 3
Last Quarter
Feb 10
New
Feb 17
First Quarter
Feb 25
Full

Hourly Weather History & Observations

Time (CST) Temp. Windchill Dew Point Humidity Pressure Visibility Wind Dir Wind Speed Gust Speed Precip Events Conditions
12:53 AM 6.1 °F -10.9 °F -2.0 °F 69% 29.81 in 10.0 mi NW 13.8 mph 21.9 mph N/A   Mostly Cloudy
1:53 AM 6.1 °F -6.8 °F -0.9 °F 73% 29.83 in 3.0 mi WNW 8.1 mph - 0.00 in Snow Light Snow
2:05 AM 6.8 °F -7.8 °F -0.4 °F 72% 29.77 in 6.0 mi WNW 10.4 mph - 0.00 in   Haze
2:53 AM 5.0 °F -13.6 °F -2.9 °F 70% 29.84 in 10.0 mi WNW 16.1 mph - 0.00 in   Overcast
3:53 AM 3.9 °F -14.3 °F -4.0 °F 70% 29.85 in 10.0 mi WNW 15.0 mph 25.3 mph N/A   Overcast
4:53 AM 3.9 °F -14.3 °F -4.0 °F 70% 29.87 in 10.0 mi NW 15.0 mph - N/A   Overcast
5:53 AM 3.9 °F -14.3 °F -4.0 °F 70% 29.89 in 7.0 mi WNW 15.0 mph - N/A   Overcast
6:53 AM 1.9 °F -18.1 °F -5.1 °F 72% 29.93 in 6.0 mi NW 17.3 mph 25.3 mph 0.00 in   Haze
7:53 AM 1.0 °F -19.3 °F -7.1 °F 69% 29.96 in 6.0 mi NW 17.3 mph 25.3 mph 0.00 in   Haze
8:53 AM -0.0 °F -22.4 °F -8.0 °F 69% 29.99 in 7.0 mi WNW 20.7 mph 25.3 mph N/A   Overcast
9:53 AM 1.0 °F -20.9 °F -8.0 °F 66% 30.02 in 4.0 mi NW 20.7 mph 26.5 mph 0.00 in Snow Light Snow
10:11 AM 1.4 °F -18.8 °F -7.6 °F 66% 29.97 in 2.0 mi NW 17.3 mph 25.3 mph 0.00 in Snow Light Snow
10:26 AM 1.4 °F -17.6 °F -7.6 °F 66% 29.98 in 3.0 mi NW 15.0 mph 23.0 mph 0.00 in Snow Light Snow
10:53 AM 1.0 °F -20.9 °F -8.0 °F 66% 30.06 in 2.5 mi NW 20.7 mph 27.6 mph 0.00 in Snow Light Snow
11:17 AM 1.4 °F -21.0 °F -7.6 °F 66% 30.00 in 3.0 mi NW 21.9 mph 28.8 mph 0.00 in Snow Light Snow
11:24 AM 1.4 °F -20.5 °F -7.6 °F 66% 30.00 in 2.0 mi WNW 20.7 mph 27.6 mph 0.00 in Snow Light Snow
11:32 AM 1.4 °F -19.9 °F -7.6 °F 66% 30.00 in 2.5 mi WNW 19.6 mph 26.5 mph 0.00 in Snow Light Snow
11:39 AM 1.4 °F -19.4 °F -7.6 °F 66% 30.00 in 3.0 mi WNW 18.4 mph 27.6 mph 0.00 in Snow Light Snow
11:53 AM 1.0 °F -18.7 °F -8.0 °F 66% 30.07 in 3.0 mi NW 16.1 mph 26.5 mph 0.00 in Snow Light Snow
12:00 PM 1.4 °F -18.2 °F -7.6 °F 66% 30.00 in 2.0 mi NW 16.1 mph 26.5 mph 0.00 in Snow Light Snow
12:12 PM 1.4 °F -19.4 °F -7.6 °F 66% 30.01 in 3.0 mi WNW 18.4 mph 25.3 mph 0.00 in   Overcast
12:53 PM 1.9 °F -19.2 °F -9.0 °F 60% 30.09 in 3.0 mi WNW 19.6 mph 25.3 mph 0.00 in   Haze
1:53 PM 1.9 °F -19.2 °F -8.0 °F 63% 30.11 in 4.0 mi WNW 19.6 mph - 0.00 in Snow Light Snow
2:53 PM 1.9 °F -20.2 °F -8.0 °F 63% 30.13 in 10.0 mi NW 21.9 mph 29.9 mph 0.00 in   Mostly Cloudy
3:41 PM 1.4 °F -18.8 °F -7.6 °F 66% 30.08 in 10.0 mi WNW 17.3 mph 26.5 mph N/A   Scattered Clouds
3:53 PM 1.9 °F -19.8 °F -9.0 °F 60% 30.16 in 10.0 mi WNW 20.7 mph 25.3 mph N/A   Partly Cloudy
4:53 PM 1.0 °F -18.7 °F -11.0 °F 57% 30.18 in 10.0 mi NW 16.1 mph 25.3 mph N/A   Clear
6:53 PM -2.0 °F -20.5 °F -11.9 °F 63% 30.24 in 10.0 mi West 12.7 mph - N/A   Clear
7:53 PM -2.9 °F -23.1 °F -13.0 °F 62% 30.27 in 10.0 mi WNW 15.0 mph - N/A   Clear
8:53 PM -5.1 °F -25.9 °F -15.0 °F 62% 30.29 in 10.0 mi WNW 15.0 mph - N/A   Clear
9:53 PM -6.0 °F -26.3 °F -15.0 °F 65% 30.30 in 10.0 mi WNW 13.8 mph 19.6 mph N/A   Clear
10:53 PM -7.1 °F -26.8 °F -17.0 °F 62% 30.32 in 10.0 mi WNW 12.7 mph - N/A   Clear
11:53 PM -8.0 °F -26.1 °F -18.0 °F 61% 30.33 in 10.0 mi WNW 10.4 mph - N/A   Clear